Regional Weather Roundup
Issued by NWS Lake Charles, LA

Home | Current Version | Previous Version | Text Only | Print | Product List | Glossary On
Versions: 1 2 3 4 5 6 7 8 9 10 11 12 13 14 15 16 17 18 19 20 21 22 23 24 25 26 27 28 29 30 31 32 33 34 35 36 37 38 39 40 41 42 43 44 45 46 47 48 49 50
011
ASUS44 KLCH 231210
RWRLCH
REGIONAL WEATHER ROUNDUP
NATIONAL WEATHER SERVICE LAKE CHARLES LA
700 AM CDT SAT SEP 23 2017

Note: "fair" indicates few or no clouds below 12,000 feet with no
significant weather and/or obstructions to visibility.


ACROSS SOUTHEAST TEXAS

CITY           SKY/WX    TMP DP  RH WIND       PRES   REMARKS
BEAUMONT       NOT AVBL
BEAUMONT CITY  FAIR      72  70  94 CALM      29.93S FOG
ORANGE         SUNNY     71  71 100 CALM      29.94S FOG
JASPER         FOG       70  70 100 CALM      29.96S VSB 1/2
$$

ACROSS CENTRAL LOUISIANA

CITY           SKY/WX    TMP DP  RH WIND       PRES   REMARKS
LEESVILLE      CLEAR     70  68  95 CALM      29.93R
FULLERTON      FAIR      69  68  96 CALM      29.92R FOG
ALEXANDRIA INT CLEAR     70  66  88 CALM      29.93R
ESLER FIELD    NOT AVBL
DERIDDER       FAIR      70  69  95 CALM      29.96R FOG
OAKDALE        FOG       68  66  95 CALM      29.94S VSB 1
OPELOUSAS      FAIR      69  69 100 CALM      29.95R FOG
$$

ACROSS SOUTHWEST AND SOUTH CENTRAL LOUISIANA

CITY           SKY/WX    TMP DP  RH WIND       PRES   REMARKS
SULPHUR        SUNNY     72  71  98 CALM      29.94R FOG
LAKE CHARLES   CLEAR     72  72 100 CALM      29.92
CHENNAULT INT  NOT AVBL
CAMERON PHI      N/A     75  73  94 NE5       29.92R
DEQUINCY       FAIR      69  68  97 CALM      29.94S FOG
JENNINGS       FAIR      73  72  97 MISG      29.94R
LAFAYETTE      CLEAR     73  72  94 CALM      29.94R
NEW IBERIA     CLEAR     72  68  88 CALM      29.94R
ABBEVILLE        N/A     70  70 100 CALM      29.94R
PATTERSON      NOT AVBL
SALT POINT       N/A     74  72  93 CALM      29.92R
$$

SELECTED SITES ACROSS THE REGION

CITY           SKY/WX    TMP DP  RH WIND       PRES   REMARKS
HOUSTON BUSH   MOCLDY    73  72  96 N3        29.93R FOG
HOUSTON HOBBY  NOT AVBL
GALVESTON      NOT AVBL
COLLEGE STAT   NOT AVBL
CONROE         NOT AVBL
HUNTSVILLE     NOT AVBL
LUFKIN         NOT AVBL
SHREVEPORT     CLEAR     70  70 100 CALM      29.95R
MONROE         CLEAR     70  69  97 CALM      29.96S
NATCHEZ MS     CLEAR     70  69  97 CALM      29.97R
BATON ROUGE    CLEAR     72  71  97 CALM      29.95R FOG
N.O. INTL ARPT PTCLDY    75  75 100 E3        29.94R
SLIDELL        NOT AVBL
$$

MARINE REPORTS

STATION/POSITION TIME  SKY/WX   TEMP    WIND        PRES    VSBY
                                AIR SEA DIR/SP/G
                 (UTC)          (F)     (DEG/KT/KT) (MB)    (MI)
BUOY 30 S HIGH I 1050            81 82  120/  8/  8 1012.6
WVE H/P(F/S)=  2/ 5

SEA RIM ST PARK  1100            77      40/  4/  5 1013.5R
PORT ARTHUR      1148            76 82   40/  2/  3 1013.4R
SABINE PASS N    1142            78 84   30/  5/  6 1014.6R
TEXAS POINT      NOT AVBL
CALCASIEU PASS   1148            78 84   80/  6/  7 1012.3R
LK CHARLES BEACH 1148            74 81              1013.1R
MARSH ISLAND     1100            81                   N/A
FRESH WATER LOCK 1148            77 87   30/  3/  5 1013.2R
AMERADA PASS     1148            74 83   40/  1/  3 1013.4R
$$




USA.gov is the U.S. government's official web portal to all federal, state and local government web resources and services.